This demonstration page uses our WeatherBlox Daily Observations layout. Learn more.

Left ArrowRight Arrow

44.89941, -97.11507

Hourly Observations for August 22, 2016

Temp ( °F °C ) Dew Point ( °F °C ) Humidity (%) Winds ( mph kmh ) Pressure ( in mb ) Visibility ( mi km ) Precip ( " mm )
12:53 am 00:53 Clear 62 16.7 54 12.2 75 75 SSE 13 20 29.90 1013 10 16 0.00 0.00
1:53 am 01:53 Clear 62 16.7 55 12.8 78 78 SSE 14 22 29.88 1012 10 16 0.00 0.00
2:53 am 02:53 Clear 62 16.7 55 12.8 78 78 SSE 13 20 29.86 1011 10 16 0.00 0.00
3:53 am 03:53 Clear 63 17.2 55 12.8 76 76 S 16 26 29.83 1010 10 16 0.00 0.00
4:53 am 04:53 Clear 62 16.7 56 13.3 80 80 S 15 24 29.81 1010 10 16 0.00 0.00
5:53 am 05:53 Clear 61 16.1 56 13.3 84 84 SSE 13 20 29.80 1009 10 16 0.00 0.00
6:53 am 06:53 Sunny 59 15 56 13.3 90 90 SSE 12 19 29.80 1009 10 16 0.00 0.00
7:53 am 07:53 Sunny 62 16.7 57 13.9 84 84 S 14 22 29.80 1009 10 16 0.00 0.00
8:53 am 08:53 Sunny 67 19.4 58 14.4 73 73 S 16 26 29.80 1009 10 16 0.00 0.00
9:53 am 09:53 Sunny 71 21.7 59 15 66 66 S 15 24 29.79 1009 10 16 0.00 0.00
10:53 am 10:53 Sunny 74 23.3 60 15.6 62 62 S 15 24 29.78 1009 10 16 0.00 0.00
11:53 am 11:53 Sunny 76 24.4 62 16.7 62 62 S 17 28 29.77 1008 10 16 0.00 0.00
12:53 pm 12:53 Sunny 79 26.1 64 17.8 60 60 S 18 30 29.75 1007 10 16 0.00 0.00
1:53 pm 13:53 Sunny 81 27.2 64 17.8 57 57 SSW 22 35 29.73 1007 10 16 0.00 0.00
2:53 pm 14:53 Sunny 83 28.3 66 18.9 57 57 S 20 31 29.73 1007 10 16 0.00 0.00
3:53 pm 15:53 Sunny 85 29.4 67 19.4 55 55 S 18 30 29.72 1006 10 16 0.00 0.00
4:53 pm 16:53 Sunny 85 29.4 67 19.4 55 55 S 18 30 29.71 1006 10 16 0.00 0.00
5:53 pm 17:53 Sunny 84 28.9 66 18.9 55 55 S 15 24 29.72 1006 10 16 0.00 0.00
6:53 pm 18:53 Sunny 83 28.3 65 18.3 55 55 S 21 33 29.72 1007 10 16 0.00 0.00
7:53 pm 19:53 Sunny 80 26.7 65 18.3 60 60 S 17 28 29.73 1007 10 16 0.00 0.00
8:53 pm 20:53 Clear 78 25.6 65 18.3 64 64 S 17 28 29.74 1007 10 16 0.00 0.00
9:53 pm 21:53 Clear 75 23.9 65 18.3 71 71 S 17 28 29.77 1008 10 16 0.00 0.00
10:53 pm 22:53 Clear 74 23.3 64 17.8 71 71 S 20 31 29.77 1008 10 16 0.00 0.00
11:53 pm 23:53 Clear 72 22.2 63 17.2 73 73 S 20 31 29.77 1008 10 16 0.00 0.00

Powered by AerisWeather